Regional Weather Roundup
Issued by NWS

Home | Current Version | Previous Version | Graphics & Text | Print | Product List | Glossary On
Versions: 1 2 3 4 5 6 7 8 9 10 11 12 13 14 15 16 17 18 19 20 21 22 23 24 25 26 27 28 29 30 31 32 33 34 35 36 37 38 39 40 41 42 43 44 45 46 47 48 49 50
000
ASUS45 KTFX 072110
RWRMT
MONTANA REGIONAL WEATHER ROUNDUP
NATIONAL WEATHER SERVICE GREAT FALLS MT
300 PM MDT TUE JUL 07 2015

NOTE: "FAIR" INDICATES FEW OR NO CLOUDS BELOW 12000 FEET WITH NO
SIGNIFICANT WEATHER AND/OR OBSTRUCTIONS TO VISIBILITY.

MTZ001>007-043-072200-
WEST OF THE DIVIDE

CITY           SKY/WX    TMP DP  RH WIND       PRES   REMARKS
KALISPELL      MOCLDY    70  52  52 CALM      30.09F HAZE
MISSOULA       MOSUNNY   81  46  29 N21G30    30.02F
BUTTE          LGT RAIN  66  44  45 W16G23    30.15R
MULLAN PASS    PTSUNNY   67  47  48 CALM      30.18F
DEER LODGE       N/A     73  46  38 S8        30.11F
EUREKA           N/A     79  52  38 E8G16     30.04F
HAMILTON         N/A     73  48  40 S10       30.04F
LIBBY            N/A     75  57  53 W5        30.05F
PLAINS           N/A     77  48  35 N8        30.05F
RONAN            N/A     65  55  69 N9        30.12S
THOMPSON FALLS   N/A     79  47  32 NE15      30.06F
$$

MTZ008-052>055-072200-
SOUTHWEST MONTANA

CITY           SKY/WX    TMP DP  RH WIND       PRES   REMARKS
BOZEMAN        MOSUNNY   83  41  22 NW12      30.02F
DILLON         MOSUNNY   83  42  23 N12       30.03F
W YELLOWSTONE  MOSUNNY   73  37  27 N5        30.14F
THREE FORKS      N/A     81  54  39 E8        30.03F
$$

MTZ009-010-012-014-046-048-049-054-072200-
EAST SLOPES AND CENTRAL MONTANA

CITY           SKY/WX    TMP DP  RH WIND       PRES   REMARKS
CUT BANK       CLOUDY    66  48  52 VRB5      30.15F
GREAT FALLS    PTSUNNY   65  53  65 N12       30.15S
MALMSTROM AFB  PTSUNNY   63  52  68 N9        30.15S
HELENA         MOSUNNY   74  49  41 N21G29    30.09S
CONRAD           N/A     66  57  72 SW5       30.16F
$$

MTZ011-013-016-021-045-047-050-051-072200-
NORTH CENTRAL MONTANA

CITY           SKY/WX    TMP DP  RH WIND       PRES   REMARKS
HAVRE          CLOUDY    72  54  53 SW17      30.07S
LEWISTOWN      CLOUDY    69  45  41 N12       30.12S
CHINOOK          N/A     75  46  35 W8        30.04F
FORT BENTON      N/A     63  54  72 S5        30.13S
$$

MTZ017>020-022>027-061-062-072200-
NORTHEAST MONTANA

CITY           SKY/WX    TMP DP  RH WIND       PRES   REMARKS
GLASGOW        CLOUDY    79  45  29 W7        29.98F
JORDAN           N/A     80  44  27 E8        30.01F
SIDNEY         MOSUNNY   81  48  32 CALM      29.99F
WOLF POINT     CLOUDY    79  46  31 CALM      29.99S
MALTA            N/A     78  44  29 NW6       29.98S
PLENTYWOOD       N/A     70  54  56 SW8       30.00S
POPLAR           N/A     75  52  43 W6        29.99S
SCOBEY           N/A     76  48  37 S5        29.98F
$$

MTZ028>42-056>058-072200-
SOUTHCENTRAL AND SOUTHEAST MONTANA

CITY           SKY/WX    TMP DP  RH WIND       PRES   REMARKS
BAKER          PTSUNNY   79  52  38 NW8       29.98F
BILLINGS       MOSUNNY   83  39  21 N13G22    30.03F
LIVINGSTON     MOSUNNY   79  43  27 E17       30.05F
MILES CITY     MOSUNNY   81  45  28 N10G18    29.98F
EKALAKA          N/A     77  51  39 SW7       29.99F
FORSYTH          N/A     79  45  29 N8G17     29.99F
LAUREL           N/A     83  42  23 NE9       30.01F
ROUNDUP          N/A     80  40  24 NW8       29.96F
$$

REGIONAL REPORTS...DAKOTAS

CITY           SKY/WX    TMP DP  RH WIND       PRES   REMARKS
WILLISTON      MOSUNNY   81  43  26 VRB5      29.99F
MINOT          MOSUNNY   72  54  53 S13       30.02F
DICKINSON      PTSUNNY   76  59  55 SE18      29.99F
BEACH          MOCLDY    68  64  88 NE6       30.00S HAZE
CROSBY         CLOUDY    70  61  73 CALM      30.00S
BISMARCK       MOSUNNY   75  56  51 S12G20    30.06F
GRAND FORKS    MOSUNNY   73  44  35 SW10      30.08F
FARGO          SUNNY     72  44  36 S10       30.11F
BUFFALO SD       N/A     79  49  34 S12       29.93F
RAPID CITY     SUNNY     75  59  57 S20G25    30.05F
$$

REGIONAL REPORTS...WYOMING/IDAHO/WASHINGTON

CITY           SKY/WX    TMP DP  RH WIND       PRES   REMARKS
GILLETTE       PTSUNNY   77  47  34 SW5       30.04F
SHERIDAN       PTSUNNY   77  49  37 W10       30.04F
BUFFALO WY     CLOUDY    65  55  70 W9        30.11F
CODY           PTSUNNY   77  50  38 N20G25    30.07F
YELLOWSTONE LA   N/A     65  43  44 VRB3      30.24F
IDAHO FALLS    MOSUNNY   82  46  28 VRB3      30.02F
SALMON         CLOUDY    79  45  29 W13G22    30.00R
BOISE          MOSUNNY   93  49  22 N8        29.91F HX  90
SPOKANE        PTSUNNY   87  48  25 NE9       29.94F
$$

REGIONAL REPORTS...ALBERTA

CITY           SKY/WX    TMP DP  RH WIND       PRES   REMARKS
EDMONTON       SUNNY     63  37  39 N6        30.10F
CALGARY        PTSUNNY   63  50  63 NE9       30.15F
LETHBRIDGE     MOSUNNY   70  54  56 VRB3      30.11F
MEDICINE HAT   PTSUNNY   77  45  31 CALM      30.04F
WATERTON GATE    N/A     66  48  52 NE8         N/A
CARDSTON         N/A     68  50  52 N5          N/A
MILK RIVER       N/A     70  52  52 N6          N/A
ONEFOUR          N/A     72  46  40 NW10G18     N/A
$$

REGIONAL REPORTS...SASKATCHEWAN

CITY           SKY/WX    TMP DP  RH WIND       PRES   REMARKS
SWIFT CURRENT  PTSUNNY   75  45  33 NW17G28   30.01F
REGINA         LGT RAIN  72  52  49 SW8G17    29.95S
SASKATOON      PTSUNNY   63  48  59 N14G22    30.05S
CYPRESS HILLS    N/A     66  39  37 NW7         N/A
VAL MARIE        N/A     77  45  31 NW12        N/A
ROCKGLEN         N/A     77  43  29 W9          N/A
ASSINIBOIA       N/A     61  37  41 N8          N/A
$$


USA.gov is the U.S. government's official web portal to all federal, state and local government web resources and services.